TimeMST,TemperatureF,Dew PointF,Humidity,Sea Level PressureIn,VisibilityMPH,Wind Direction,Wind SpeedMPH,Gust SpeedMPH,PrecipitationIn,Events,Conditions,WindDirDegrees,DateUTC
12:54 AM,19.0,15.1,85,30.38,9.0,Calm,Calm,-,N/A,,Clear,0,2012-12-21 07:54:00
1:54 AM,17.1,12.9,84,30.36,10.0,South,3.5,-,N/A,,Clear,170,2012-12-21 08:54:00
2:54 AM,16.0,12.0,84,30.37,10.0,WSW,3.5,-,N/A,,Clear,240,2012-12-21 09:54:00
3:54 AM,17.1,12.9,84,30.36,10.0,Calm,Calm,-,N/A,,Clear,0,2012-12-21 10:54:00
4:54 AM,15.1,10.9,84,30.36,10.0,Calm,Calm,-,N/A,,Clear,0,2012-12-21 11:54:00
5:54 AM,12.0,8.1,84,30.39,10.0,Calm,Calm,-,N/A,,Clear,0,2012-12-21 12:54:00
6:54 AM,12.9,8.1,81,30.40,9.0,South,3.5,-,N/A,,Clear,180,2012-12-21 13:54:00
7:54 AM,12.0,9.0,88,30.42,10.0,South,3.5,-,N/A,,Clear,170,2012-12-21 14:54:00
8:54 AM,19.9,15.1,81,30.40,10.0,Calm,Calm,-,N/A,,Clear,0,2012-12-21 15:54:00
9:54 AM,24.1,17.1,75,30.39,10.0,Calm,Calm,-,N/A,,Clear,0,2012-12-21 16:54:00
10:54 AM,27.0,18.0,69,30.35,10.0,Calm,Calm,-,N/A,,Clear,0,2012-12-21 17:54:00
11:54 AM,30.0,18.0,61,30.30,10.0,WNW,3.5,-,N/A,,Clear,290,2012-12-21 18:54:00
12:54 PM,36.0,18.0,48,30.25,10.0,Calm,Calm,-,N/A,,Clear,0,2012-12-21 19:54:00
1:54 PM,37.9,21.0,51,30.23,10.0,NW,4.6,-,N/A,,Clear,310,2012-12-21 20:54:00
2:54 PM,37.9,21.0,51,30.22,10.0,Calm,Calm,-,N/A,,Clear,0,2012-12-21 21:54:00
3:54 PM,39.0,21.9,50,30.21,10.0,NNW,3.5,-,N/A,,Clear,330,2012-12-21 22:54:00
4:54 PM,37.0,21.9,54,30.24,10.0,Calm,Calm,-,N/A,,Clear,0,2012-12-21 23:54:00
5:54 PM,30.0,21.9,72,30.30,8.0,Calm,Calm,-,N/A,,Clear,0,2012-12-22 00:54:00
6:54 PM,26.1,19.9,78,30.32,10.0,Calm,Calm,-,N/A,,Clear,0,2012-12-22 01:54:00
7:54 PM,27.0,19.9,75,30.32,10.0,Calm,Calm,-,N/A,,Clear,0,2012-12-22 02:54:00
8:54 PM,24.1,19.9,84,30.30,6.0,Calm,Calm,-,N/A,,Clear,0,2012-12-22 03:54:00
9:54 PM,25.0,19.9,81,30.30,10.0,West,3.5,-,N/A,,Clear,280,2012-12-22 04:54:00
10:54 PM,25.0,19.9,81,30.30,8.0,Calm,Calm,-,N/A,,Clear,0,2012-12-22 05:54:00
11:54 PM,24.1,19.9,84,30.28,6.0,Calm,Calm,-,N/A,,Clear,0,2012-12-22 06:54:00